Weather reports worldwide

Advertisment
Lefkopa, Cyprus (17515): temperature & dewpoint: 11.07.2018 16:00:00 - 17.07.2018 16:00:00 (EEST)Lefkopa, Cyprus (17515): wind speed: 11.07.2018 16:00:00 - 17.07.2018 16:00:00 (EEST)Lefkopa, Cyprus (17515): wind direction: 11.07.2018 16:00:00 - 17.07.2018 16:00:00 (EEST)Lefkopa, Cyprus (17515): reduced air pressure: 11.07.2018 16:00:00 - 17.07.2018 16:00:00 (EEST)Lefkopa, Cyprus (17515): visibility: 11.07.2018 16:00:00 - 17.07.2018 16:00:00 (EEST)
Date & Time tt [°C] td [°C] ff [km/h] ff [kn] dd ppp [hPa] vv [km]
17.07.2018 16:00:00 38,1 8,9 11 6 NNE 1005,4 10
17.07.2018 15:00:00 39,3 6,0 8 4 NE 1005,5 10
17.07.2018 14:00:00 38,3 5,5 5 3 E 1005,9 10
17.07.2018 13:00:00 37,9 5,4 8 4 SW 1006,4 10
17.07.2018 12:00:00 36,4 6,3 8 4 NE 1006,8 10
17.07.2018 11:00:00 35,8 6,2 9 5 N 1006,8 10
17.07.2018 10:00:00 34,0 7,7 16 9 NNW 1006,8 10
17.07.2018 09:00:00 32,7 7,2 11 6 NW 1006,9 10
17.07.2018 08:00:00 29,1 11,6 0 0 N 1007,1 10
17.07.2018 07:00:00 26,0 16,9 9 5 S 1007,1 10
17.07.2018 06:00:00 25,6 18,6 0 0 N 1007,0 10
17.07.2018 05:00:00 25,4 20,4 8 4 S 1006,6 10
17.07.2018 04:00:00 25,5 22,0 18 10 SSW 1006,5 10
17.07.2018 03:00:00 26,3 22,4 13 7 SSW 1006,4 10
17.07.2018 02:00:00 26,5 22,3 13 7 SSW 1006,3 10
17.07.2018 01:00:00 27,2 20,3 16 9 SW 1006,5 10
17.07.2018 00:00:00 27,2 20,7 11 6 SW 1006,5 10
16.07.2018 23:00:00 28,0 19,9 16 9 SSW 1006,4 10
16.07.2018 22:00:00 29,8 13,3 9 5 SW 1006,2 10
16.07.2018 21:00:00 31,6 12,5 11 6 SW 1005,4 10
16.07.2018 20:00:00 33,7 11,5 8 4 NNE 1005,0 10
16.07.2018 19:00:00 35,1 9,5 15 8 NE 1004,7 10
16.07.2018 18:00:00 35,1 10,1 15 8 ENE 1004,9 10
16.07.2018 17:00:00 34,2 14,1 24 13 E 1004,7 9
16.07.2018 16:00:00 37,3 13,5 15 8 NE 1004,4 10
16.07.2018 15:00:00 35,7 12,9 22 12 NNE 1004,7 10
16.07.2018 14:00:00 37,4 8,2 13 7 ESE 1004,4 10
16.07.2018 13:00:00 37,0 6,1 0 0 N 1004,9 10
16.07.2018 12:00:00 35,4 12,1 11 6 NNW 1005,3 10
16.07.2018 11:00:00 34,3 12,9 0 0 N 1005,6 10
16.07.2018 10:00:00 33,2 13,3 16 9 NE 1005,5 10
16.07.2018 09:00:00 32,0 13,7 11 6 E 1005,2 10
16.07.2018 08:00:00 31,0 13,4 9 5 E 1005,1 10
16.07.2018 07:00:00 29,6 12,0 9 5 WSW 1005,0 10
16.07.2018 06:00:00 25,1 20,3 11 6 S 1005,0 10
16.07.2018 05:00:00 24,7 22,8 11 6 SSW 1004,9 10
16.07.2018 04:00:00 25,4 23,1 5 3 SW 1004,9 10
16.07.2018 03:00:00 26,5 22,8 15 8 SW 1005,0 10
16.07.2018 02:00:00 26,5 22,8 16 9 SW 1005,0 10
16.07.2018 01:00:00 26,7 22,9 15 8 SW 1005,2 10
16.07.2018 00:00:00 27,2 23,0 15 8 SSW 1005,2 10
15.07.2018 23:00:00 28,6 18,9 15 8 S 1004,9 10
15.07.2018 22:00:00 29,7 17,0 13 7 SSW 1004,7 10
15.07.2018 21:00:00 31,8 14,7 11 6 SW 1003,9 10
15.07.2018 20:00:00 34,7 9,1 11 6 WSW 1003,1 10
15.07.2018 19:00:00 36,2 7,5 8 4 WSW 1002,9 10
15.07.2018 18:00:00 36,7 7,0 16 9 NW 1002,8 10
15.07.2018 17:00:00 37,7 6,4 9 5 NNW 1002,8 10
15.07.2018 16:00:00 37,7 6,1 9 5 NNW 1002,7 10
15.07.2018 15:00:00 37,5 5,8 13 7 WNW 1002,8 10
15.07.2018 14:00:00 36,9 6,0 5 3 NNW 1003,0 10
15.07.2018 13:00:00 37,3 8,1 5 3 N 1003,2 10
15.07.2018 12:00:00 35,3 9,3 13 7 WNW 1003,5 10
15.07.2018 11:00:00 34,3 10,9 18 10 NNW 1003,5 10
15.07.2018 10:00:00 33,7 11,9 31 17 NNW 1003,3 10
15.07.2018 09:00:00 32,6 11,8 22 12 NW 1003,0 10
15.07.2018 08:00:00 32,3 11,2 26 14 NNW 1002,5 10
15.07.2018 07:00:00 30,1 12,6 0 0 N 1002,2 10
15.07.2018 06:00:00 30,7 12,4 0 0 N 1001,5 10
15.07.2018 05:00:00 26,7 20,8 9 5 SSW 1001,8 10
15.07.2018 04:00:00 25,9 22,1 13 7 S 1002,1 10
15.07.2018 03:00:00 25,6 22,6 11 6 SW 1002,4 10
15.07.2018 02:00:00 26,1 22,5 8 4 SSW 1002,4 10
15.07.2018 01:00:00 26,4 22,5 8 4 SSW 1002,6 10
15.07.2018 00:00:00 26,8 22,5 16 9 SSW 1002,7 10
14.07.2018 23:00:00 27,6 21,2 13 7 SSW 1002,6 10
14.07.2018 22:00:00 29,5 17,3 18 10 S 1002,1 10
14.07.2018 21:00:00 31,3 13,8 22 12 SSW 1001,5 10
14.07.2018 20:00:00 33,3 15,2 8 4 S 1000,8 10
14.07.2018 19:00:00 35,2 14,6 15 8 SSW 1000,3 10
14.07.2018 18:00:00 39,3 4,7 18 10 NW 999,8 10
14.07.2018 17:00:00 39,1 5,3 11 6 WNW 999,9 10
14.07.2018 16:00:00 39,0 6,1 18 10 NW 1000,3 10
14.07.2018 15:00:00 39,1 6,2 29 16 NW 1000,7 10
14.07.2018 14:00:00 38,8 7,6 18 10 NW 1001,2 10
14.07.2018 13:00:00 37,9 9,0 18 10 W 1001,6 10
14.07.2018 12:00:00 26,7 9,3 18 10 NNW 1002,0 10
14.07.2018 11:00:00 36,3 11,2 8 4 WNW 1002,1 10
14.07.2018 10:00:00 34,2 15,0 9 5 SE 1002,3 10
14.07.2018 09:00:00 30,1 17,8 0 0 N 1002,6 10
14.07.2018 08:00:00 28,4 16,6 0 0 N 1002,6 10
14.07.2018 07:00:00 27,1 13,2 0 0 N 1002,5 10
14.07.2018 06:00:00 26,5 12,5 0 0 N 1002,4 10
14.07.2018 05:00:00 29,1 12,9 5 3 WSW 1002,0 10
14.07.2018 04:00:00 29,1 11,3 11 6 WSW 1001,9 10
14.07.2018 03:00:00 27,9 16,7 11 6 SW 1002,3 10
14.07.2018 02:00:00 27,8 17,3 11 6 WSW 1002,6 10
14.07.2018 01:00:00 28,2 17,6 13 7 SW 1002,9 10
14.07.2018 00:00:00 28,3 17,6 15 8 SW 1003,1 10
13.07.2018 23:00:00 27,7 19,2 11 6 SW 1003,4 10
13.07.2018 22:00:00 27,8 20,7 11 6 SW 1003,3 10
13.07.2018 21:00:00 28,8 20,2 15 8 SSW 1003,2 10
13.07.2018 20:00:00 30,7 19,6 16 9 SSW 1002,8 10
13.07.2018 19:00:00 34,2 16,3 21 11 SW 1002,2 10
13.07.2018 18:00:00 35,8 16,1 21 11 S 1001,7 10
13.07.2018 17:00:00 37,3 15,0 15 8 SSW 1002,0 10
13.07.2018 16:00:00 37,5 15,0 15 8 SSW 1002,1 10
13.07.2018 15:00:00 37,3 15,7 18 10 SSW 1002,4 10
13.07.2018 14:00:00 37,7 15,5 26 14 SSE 1002,8 10
13.07.2018 13:00:00 36,4 14,4 11 6 S 1003,6 10
13.07.2018 12:00:00 34,9 15,5 9 5 SW 1004,0 10
13.07.2018 11:00:00 32,4 17,9 0 0 N 1004,5 10
13.07.2018 10:00:00 30,7 19,7 0 0 N 1004,7 10
13.07.2018 09:00:00 27,1 21,1 0 0 N 1005,3 10
13.07.2018 08:00:00 26,3 21,2 0 0 N 1005,4 9
13.07.2018 07:00:00 23,1 19,3 0 0 N 1005,5 8
13.07.2018 06:00:00 23,3 19,8 0 0 N 1005,5 8
13.07.2018 05:00:00 23,1 20,3 0 0 N 1005,6 10
13.07.2018 04:00:00 24,1 20,8 0 0 N 1005,6 10
13.07.2018 03:00:00 25,2 21,3 11 6 SSW 1006,1 10
13.07.2018 02:00:00 25,5 21,3 5 3 S 1006,2 10
13.07.2018 01:00:00 25,7 21,2 8 4 WSW 1006,7 10
13.07.2018 00:00:00 25,8 21,4 0 0 N 1006,9 10
12.07.2018 23:00:00 26,1 21,5 13 7 SSW 1007,0 10
12.07.2018 22:00:00 26,5 21,1 18 10 SSW 1007,0 10
12.07.2018 21:00:00 27,3 20,2 16 9 SW 1006,6 10
12.07.2018 20:00:00 29,5 18,5 15 8 SSW 1006,1 10
12.07.2018 19:00:00 31,6 15,8 13 7 SW 1005,8 10
12.07.2018 18:00:00 32,6 17,5 13 7 SSW 1005,9 10
12.07.2018 17:00:00 33,4 16,2 9 5 SW 1006,2 10
12.07.2018 16:00:00 34,4 13,5 21 11 WSW 1006,2 10
12.07.2018 15:00:00 35,8 10,1 8 4 SW 1006,4 10
12.07.2018 14:00:00 34,9 11,2 13 7 WSW 1006,7 10
12.07.2018 13:00:00 34,9 6,3 8 4 ESE 1007,1 10
12.07.2018 12:00:00 32,8 8,2 8 4 SSW 1007,6 10
12.07.2018 11:00:00 31,1 11,2 0 0 N 1008,1 10
12.07.2018 10:00:00 28,9 13,4 0 0 N 1008,4 10
12.07.2018 09:00:00 26,5 17,3 5 3 S 1008,6 10
12.07.2018 08:00:00 24,6 16,9 0 0 N 1008,6 10
12.07.2018 07:00:00 20,0 13,0 0 0 N 1008,8 10
12.07.2018 06:00:00 18,9 12,1 0 0 N 1008,7 10
12.07.2018 05:00:00 19,7 13,7 0 0 N 1008,6 10
12.07.2018 04:00:00 22,7 16,5 0 0 N 1008,5 10
12.07.2018 03:00:00 24,0 16,4 8 4 SW 1008,6 10
12.07.2018 02:00:00 24,3 16,8 11 6 SSW 1008,8 10
12.07.2018 01:00:00 24,7 17,9 8 4 SW 1009,1 10
12.07.2018 00:00:00 25,0 19,2 15 8 WSW 1009,1 10
11.07.2018 23:00:00 25,2 19,7 16 9 SSW 1009,1 10
11.07.2018 22:00:00 25,6 19,6 13 7 WSW 1009,2 10
11.07.2018 21:00:00 26,3 18,6 24 13 SW 1008,8 10
11.07.2018 20:00:00 28,0 17,2 11 6 WSW 1008,5 10
11.07.2018 19:00:00 29,5 15,2 21 11 WSW 1008,2 10
11.07.2018 18:00:00 32,0 11,9 9 5 SW 1007,7 10
11.07.2018 17:00:00 33,4 11,7 22 12 WSW 1007,7 10
11.07.2018 16:00:00 33,4 10,9 18 10 W 1007,9 10

tt = temperature
td = dewpoint
ff = wind speed
dd = wind direction
ppp = reduced air pressure
vv = visibility

Next stations